Miscellaneous Local Product
Issued by NWS Hastings, NE

Home | Current Version | Previous Version | Graphics & Text | Print | Product List | Glossary On
Versions: 1 2 3 4 5 6 7 8 9 10 11 12 13 14 15 16 17 18 19 20 21 22 23 24 25 26 27 28 29 30 31 32 33 34 35 36 37 38 39 40 41 42 43 44 45 46 47 48 49 50
000
AXUS43 KGID 160102
MISGRI

GID CWA HOURLY WEATHER ROUNDUP
NATIONAL WEATHER SERVICE HASTINGS NE
700 PM CST FRI DEC 15 2017

NOTE: "FAIR" INDICATES FEW OR NO CLOUDS BELOW 12,000 FEET WITH NO
SIGNIFICANT WEATHER AND/OR OBSTRUCTIONS TO VISIBILITY.

...SOUTH CENTRAL NEBRASKA...

CITY           SKY/WX    TMP DP  RH WIND       PRES   REMARKS
GRAND ISLAND   CLOUDY    43  23  45 SW13      29.79F
KEARNEY        CLOUDY    42  18  37 SW8       29.80F
HASTINGS       CLOUDY    41  19  41 SW6       29.81F
ORD            PTCLDY    40  26  57 SW9       29.73F WCI  34
YORK           CLOUDY    37  27  65 SW12      29.79F WCI  30
AURORA         CLOUDY    39  26  58 SW10      29.79F WCI  32
LEXINGTON      CLOUDY    44  15  31 SW8       29.78F
HOLDREGE       CLOUDY    44  17  34 SW8       29.81F
HEBRON         CLEAR     44  26  48 SW14      29.85R

...NEBRASKA PANHANDLE...

CITY           SKY/WX    TMP DP  RH WIND       PRES   REMARKS
CHADRON        CLOUDY    43  17  35 SW8       29.73F
ALLIANCE       CLOUDY    37  16  42 SW10      29.77S WCI  30
SCOTTSBLUFF    CLOUDY    48  11  22 W12       29.79S
SIDNEY         CLOUDY    43  14  31 W12       29.82F

...WESTERN AND NORTH CENTRAL NEBRASKA...

CITY           SKY/WX    TMP DP  RH WIND       PRES   REMARKS
VALENTINE      CLOUDY    42  25  50 CALM      29.69F
AINSWORTH      CLOUDY    40  28  62 SW8       29.70S
ONEILL         CLOUDY    37  30  75 S7        29.71S WCI  31
BROKEN BOW     CLOUDY    39  23  52 W3        29.75F
IMPERIAL       CLOUDY    40  11  30 W9        29.81S WCI  34
NORTH PLATTE   CLOUDY    35  16  45 CALM      29.78S
MCCOOK         CLOUDY    43  11  27 SW8       29.81S

...EASTERN NEBRASKA...

CITY           SKY/WX    TMP DP  RH WIND       PRES   REMARKS
NORFOLK        CLOUDY    40  29  64 SW12      29.72F WCI  33
SO SIOUX CITY  CLOUDY    38  26  62 SW7       29.75F WCI  33
TEKAMAH        CLOUDY    36  22  56 SE9       29.78S WCI  29
COLUMBUS       CLOUDY    41  28  60 SW7       29.78F
ALBION         CLOUDY    38  29  68 S3        29.74F
OMAHA EPPLEY   CLOUDY    43  25  49 S10       29.80F
OFFUTT AFB     CLEAR     38  23  55 S3        29.81F
MILLARD        CLEAR     41  26  53 SE5       29.81F
LINCOLN        CLEAR     43  25  49 SW10      29.81F
NEBRASKA CITY  CLEAR     41  26  54 SW15      29.84S
BEATRICE       CLEAR     43  25  49 S12       29.85R
FALLS CITY     CLOUDY    43  23  45 SW14      29.88S

...NORTHERN KANSAS...

CITY           SKY/WX    TMP DP  RH WIND       PRES   REMARKS
GOODLAND       CLOUDY    48   7  18 SW17G24   29.85F
HILL CITY      CLEAR     47  15  27 SW13      29.86F
NORTON         CLEAR     41   7  24 S7        29.83S
PHILLIPSBURG   CLEAR     43  14  31 S7        29.86R
HAYS           CLEAR     41  17  38 SW12      29.90F
RUSSELL        CLEAR     39  19  44 S13       29.89F WCI  31
CONCORDIA      CLEAR     46  21  37 S15       29.87S
SALINA         CLEAR     43  22  43 S9        29.93F
TOPEKA         CLEAR     45  26  47 S10       29.95F



USA.gov is the U.S. government's official web portal to all federal, state and local government web resources and services.